EWG3TU LIMC-EDDL

Flight info

Callsign EWG3TU
Flight time 1h 6m
Altitude 38000
Route DOGUB6TXAOSTA5W/35R AOSTA DCT ORSUD DCT MOLUS DCT GILIR DCT PENDU DCT IXILU DCT GIVOR DCT SORAL DCT IBERA N853 ARCKY T853 NVO T857 BIKMU BIKMU1A
Aircraft A20N/M-SDE2E3FGHIRWXY/LB1

Departure

Time 2026-05-06 20:01
Airport Milan Malpensa International Airport (LIMC)

Arrival

Time 2026-05-06 21:08
Airport Düsseldorf Airport (EDDL)
Time Latitude Longitude Altitude Speed Heading
2026-05-06 19:39 45.62538 8.71605 708 ft 0 kts 169°
2026-05-06 19:48 45.62559 8.71600 735 ft 4 kts 169°
2026-05-06 19:48 45.62588 8.71592 735 ft 4 kts 170°
2026-05-06 19:49 45.62609 8.71581 734 ft 3 kts 123°
2026-05-06 19:49 45.62614 8.71560 735 ft 0 kts 79°
2026-05-06 19:52 45.62615 8.71563 736 ft 2 kts 79°
2026-05-06 19:53 45.62620 8.71599 736 ft 9 kts 79°
2026-05-06 19:53 45.62637 8.71725 736 ft 14 kts 79°
2026-05-06 19:53 45.62611 8.71835 736 ft 13 kts 169°
2026-05-06 19:53 45.62486 8.71881 736 ft 15 kts 168°
2026-05-06 19:54 45.62377 8.71912 735 ft 17 kts 169°
2026-05-06 19:54 45.62297 8.71934 736 ft 18 kts 170°
2026-05-06 19:54 45.62169 8.71964 736 ft 19 kts 171°
2026-05-06 19:54 45.62032 8.71990 736 ft 21 kts 173°
2026-05-06 19:55 45.61887 8.72025 736 ft 22 kts 167°
2026-05-06 19:55 45.61731 8.72077 735 ft 25 kts 166°
2026-05-06 19:55 45.61557 8.72136 735 ft 27 kts 168°
2026-05-06 19:55 45.61367 8.72191 736 ft 28 kts 168°
2026-05-06 19:56 45.61174 8.72238 736 ft 28 kts 171°
2026-05-06 19:56 45.60978 8.72291 737 ft 29 kts 171°
2026-05-06 19:56 45.60779 8.72342 737 ft 29 kts 168°
2026-05-06 19:56 45.60641 8.72459 737 ft 22 kts 105°
2026-05-06 19:57 45.60626 8.72685 737 ft 24 kts 96°
2026-05-06 19:57 45.60606 8.72943 737 ft 28 kts 96°
2026-05-06 19:57 45.60605 8.73219 736 ft 25 kts 58°
2026-05-06 19:57 45.60753 8.73340 737 ft 25 kts 23°
2026-05-06 19:58 45.60909 8.73405 736 ft 18 kts 351°
2026-05-06 19:58 45.61030 8.73368 737 ft 18 kts 348°
2026-05-06 19:58 45.61156 8.73331 737 ft 19 kts 349°
2026-05-06 19:58 45.61287 8.73303 737 ft 19 kts 348°
2026-05-06 19:59 45.61420 8.73263 737 ft 20 kts 347°
2026-05-06 19:59 45.61554 8.73222 736 ft 18 kts 350°
2026-05-06 19:59 45.61622 8.73321 735 ft 17 kts 78°
2026-05-06 19:59 45.61609 8.73482 736 ft 17 kts 123°
2026-05-06 20:00 45.61589 8.73652 737 ft 18 kts 83°
2026-05-06 20:00 45.61639 8.73731 736 ft 8 kts
2026-05-06 20:00 45.61700 8.73717 737 ft 12 kts 349°
2026-05-06 20:00 45.61961 8.73643 736 ft 71 kts 348°
2026-05-06 20:01 45.62642 8.73456 739 ft 125 kts 349°
2026-05-06 20:01 45.63645 8.73181 741 ft 167 kts 349°
2026-05-06 20:01 45.64786 8.72855 1279 ft 163 kts 351°
2026-05-06 20:01 45.65915 8.72586 1820 ft 166 kts 355°
2026-05-06 20:02 45.67084 8.72472 2349 ft 172 kts
2026-05-06 20:02 45.68325 8.72544 2754 ft 186 kts
2026-05-06 20:02 45.69697 8.72632 3088 ft 209 kts
2026-05-06 20:02 45.71223 8.72638 3482 ft 228 kts 359°
2026-05-06 20:03 45.72776 8.72074 3991 ft 238 kts 327°
2026-05-06 20:03 45.73927 8.70376 4802 ft 237 kts 295°
2026-05-06 20:03 45.74292 8.68113 5571 ft 236 kts 264°
2026-05-06 20:03 45.73848 8.65895 6347 ft 237 kts 242°
2026-05-06 20:04 45.73039 8.63836 7116 ft 238 kts 238°
2026-05-06 20:04 45.72189 8.61798 7909 ft 239 kts 239°
2026-05-06 20:04 45.71347 8.59743 8680 ft 241 kts 236°
2026-05-06 20:04 45.70384 8.57726 9269 ft 254 kts 236°
2026-05-06 20:05 45.69381 8.55517 9612 ft 274 kts 237°
2026-05-06 20:05 45.68350 8.53174 10222 ft 283 kts 238°
2026-05-06 20:05 45.67265 8.50691 10480 ft 305 kts 238°
2026-05-06 20:05 45.66094 8.48040 10741 ft 324 kts 237°
2026-05-06 20:06 45.64891 8.45333 11415 ft 328 kts 237°
2026-05-06 20:06 45.63664 8.42577 12149 ft 330 kts 237°
2026-05-06 20:06 45.62354 8.39866 12910 ft 333 kts 231°
2026-05-06 20:06 45.60859 8.37324 13644 ft 335 kts 230°
2026-05-06 20:07 45.59399 8.34709 14298 ft 338 kts 238°
2026-05-06 20:07 45.58491 8.31614 14950 ft 342 kts 256°
2026-05-06 20:07 45.58370 8.28205 15561 ft 349 kts 275°
2026-05-06 20:07 45.59010 8.24829 16173 ft 356 kts 285°
2026-05-06 20:08 45.59807 8.21466 16771 ft 359 kts 285°
2026-05-06 20:08 45.60613 8.18067 17402 ft 362 kts 285°
2026-05-06 20:08 45.61417 8.14647 18008 ft 365 kts 285°
2026-05-06 20:08 45.62224 8.11188 18548 ft 368 kts 285°
2026-05-06 20:09 45.63032 8.07706 19110 ft 370 kts 285°
2026-05-06 20:09 45.63840 8.04210 19643 ft 372 kts 284°
2026-05-06 20:09 45.64653 8.00684 20194 ft 375 kts 284°
2026-05-06 20:09 45.65461 7.97177 20710 ft 377 kts 284°
2026-05-06 20:10 45.66289 7.93568 21243 ft 378 kts 284°
2026-05-06 20:10 45.67100 7.90024 21738 ft 381 kts 284°
2026-05-06 20:10 45.67927 7.86416 22283 ft 383 kts 284°
2026-05-06 20:10 45.68759 7.82781 22816 ft 385 kts 284°
2026-05-06 20:11 45.69594 7.79127 23323 ft 388 kts 284°
2026-05-06 20:11 45.70431 7.75448 23718 ft 391 kts 284°
2026-05-06 20:11 45.71277 7.71736 24168 ft 392 kts 284°
2026-05-06 20:11 45.72124 7.68014 24633 ft 394 kts 283°
2026-05-06 20:12 45.72961 7.64324 25063 ft 395 kts 283°
2026-05-06 20:12 45.73811 7.60576 25470 ft 397 kts 283°
2026-05-06 20:12 45.74665 7.56789 25789 ft 400 kts 283°
2026-05-06 20:12 45.75522 7.52987 26212 ft 402 kts 283°
2026-05-06 20:13 45.76384 7.49160 26594 ft 405 kts 283°
2026-05-06 20:13 45.77251 7.45304 26956 ft 407 kts 283°
2026-05-06 20:13 45.78121 7.41424 27273 ft 410 kts 283°
2026-05-06 20:13 45.79177 7.37645 27642 ft 418 kts 293°
2026-05-06 20:14 45.80810 7.34149 27961 ft 428 kts 305°
2026-05-06 20:14 45.82995 7.31175 28252 ft 440 kts 318°
2026-05-06 20:14 45.85507 7.28623 28475 ft 444 kts 320°
2026-05-06 20:14 45.88039 7.26064 28804 ft 445 kts 319°
2026-05-06 20:15 45.90567 7.23499 29119 ft 447 kts 320°
2026-05-06 20:15 45.93115 7.20909 29430 ft 449 kts 320°
2026-05-06 20:15 45.95669 7.18304 29651 ft 452 kts 320°
2026-05-06 20:15 45.98230 7.15686 29971 ft 452 kts 320°
2026-05-06 20:16 46.00804 7.13049 30203 ft 454 kts 320°
2026-05-06 20:16 46.03381 7.10406 30405 ft 456 kts 320°
2026-05-06 20:16 46.05969 7.07746 30713 ft 457 kts 320°
2026-05-06 20:16 46.08559 7.05084 30952 ft 459 kts 320°
2026-05-06 20:17 46.11130 7.02439 31202 ft 460 kts 320°
2026-05-06 20:17 46.13764 6.99728 31503 ft 460 kts 320°
2026-05-06 20:17 46.16370 6.97043 31816 ft 460 kts 320°
2026-05-06 20:17 46.18941 6.94388 32061 ft 461 kts 320°
2026-05-06 20:18 46.21547 6.91697 32375 ft 460 kts 320°
2026-05-06 20:18 46.24145 6.89010 32656 ft 459 kts 320°
2026-05-06 20:18 46.26743 6.86318 32915 ft 460 kts 320°
2026-05-06 20:18 46.29341 6.83624 33180 ft 460 kts 320°
2026-05-06 20:19 46.31941 6.80925 33452 ft 460 kts 320°
2026-05-06 20:19 46.34536 6.78229 33684 ft 459 kts 320°
2026-05-06 20:19 46.37134 6.75525 33900 ft 460 kts 320°
2026-05-06 20:19 46.39728 6.72822 34071 ft 459 kts 320°
2026-05-06 20:20 46.42320 6.70117 34238 ft 459 kts 320°
2026-05-06 20:20 46.45008 6.67592 34424 ft 462 kts 327°
2026-05-06 20:20 46.47891 6.65499 34620 ft 464 kts 331°
2026-05-06 20:20 46.50797 6.63469 34808 ft 463 kts 330°
2026-05-06 20:21 46.53695 6.61424 35007 ft 463 kts 330°
2026-05-06 20:21 46.56590 6.59377 35197 ft 463 kts 330°
2026-05-06 20:21 46.59483 6.57330 35388 ft 462 kts 330°
2026-05-06 20:21 46.62375 6.55285 35574 ft 462 kts 331°
2026-05-06 20:22 46.65270 6.53236 35750 ft 462 kts 331°
2026-05-06 20:22 46.68163 6.51187 35916 ft 461 kts 331°
2026-05-06 20:22 46.71048 6.49141 36072 ft 461 kts 331°
2026-05-06 20:22 46.73932 6.47094 36229 ft 461 kts 331°
2026-05-06 20:23 46.76811 6.45048 36375 ft 460 kts 331°
2026-05-06 20:23 46.79655 6.43025 36531 ft 460 kts 331°
2026-05-06 20:23 46.82532 6.40975 36669 ft 460 kts 331°
2026-05-06 20:23 46.85409 6.38923 36804 ft 460 kts 331°
2026-05-06 20:24 46.88282 6.36871 36941 ft 460 kts 331°
2026-05-06 20:24 46.91157 6.34815 37064 ft 459 kts 331°
2026-05-06 20:24 46.94030 6.32759 37190 ft 459 kts 331°
2026-05-06 20:24 46.96897 6.30704 37297 ft 459 kts 331°
2026-05-06 20:25 46.99764 6.28646 37406 ft 459 kts 331°
2026-05-06 20:25 47.02632 6.26586 37521 ft 459 kts 331°
2026-05-06 20:25 47.05504 6.24521 37623 ft 459 kts 331°
2026-05-06 20:25 47.08366 6.22460 37726 ft 459 kts 331°
2026-05-06 20:26 47.14060 6.18359 37907 ft 458 kts 331°
2026-05-06 20:26 47.19787 6.14224 37928 ft 458 kts 331°
2026-05-06 20:27 47.25502 6.10089 37928 ft 458 kts 331°
2026-05-06 20:27 47.31268 6.06090 37928 ft 459 kts 337°
2026-05-06 20:28 47.37494 6.03780 37924 ft 464 kts 351°
2026-05-06 20:28 47.43926 6.03496 37926 ft 466 kts 359°
2026-05-06 20:29 47.50420 6.03623 37925 ft 467 kts 359°
2026-05-06 20:29 47.56925 6.03753 37936 ft 467 kts 359°
2026-05-06 20:30 47.66676 6.03969 37926 ft 465 kts 359°
2026-05-06 20:31 47.73125 6.04352 37929 ft 467 kts
2026-05-06 20:31 47.79514 6.06236 37932 ft 469 kts 13°
2026-05-06 20:32 47.85836 6.08596 37929 ft 468 kts 13°
2026-05-06 20:32 47.92158 6.10948 37925 ft 468 kts 13°
2026-05-06 20:33 47.98476 6.13326 37922 ft 468 kts 13°
2026-05-06 20:33 48.04794 6.15716 37914 ft 468 kts 13°
2026-05-06 20:34 48.11116 6.18114 37921 ft 468 kts 13°
2026-05-06 20:34 48.17401 6.20504 37920 ft 468 kts 13°
2026-05-06 20:35 48.23728 6.22917 37918 ft 468 kts 13°
2026-05-06 20:35 48.30053 6.25334 37918 ft 468 kts 13°
2026-05-06 20:36 48.36334 6.27742 37904 ft 468 kts 13°
2026-05-06 20:36 48.42639 6.30164 37896 ft 467 kts 13°
2026-05-06 20:37 48.48941 6.32591 37903 ft 467 kts 13°
2026-05-06 20:37 48.55244 6.35025 37913 ft 467 kts 13°
2026-05-06 20:38 48.61537 6.37461 37916 ft 467 kts 13°
2026-05-06 20:38 48.67867 6.39290 37912 ft 465 kts
2026-05-06 20:39 48.74316 6.39948 37914 ft 465 kts
2026-05-06 20:39 48.80774 6.40633 37894 ft 465 kts
2026-05-06 20:40 48.87229 6.41301 37912 ft 465 kts
2026-05-06 20:40 48.93641 6.41954 37905 ft 465 kts
2026-05-06 20:41 49.00096 6.42612 37899 ft 465 kts
2026-05-06 20:41 49.06551 6.43238 37905 ft 464 kts 360°
2026-05-06 20:42 49.12982 6.42649 37903 ft 462 kts 349°
2026-05-06 20:42 49.19240 6.40481 37906 ft 461 kts 343°
2026-05-06 20:43 49.25446 6.37968 37892 ft 461 kts 343°
2026-05-06 20:43 49.30604 6.35871 37897 ft 461 kts 343°
2026-05-06 20:44 49.36806 6.33319 37827 ft 462 kts 343°
2026-05-06 20:44 49.39906 6.32037 37503 ft 462 kts 343°
2026-05-06 20:44 49.43014 6.30750 36858 ft 464 kts 343°
2026-05-06 20:44 49.46146 6.29450 36109 ft 467 kts 343°
2026-05-06 20:45 49.49277 6.28149 35458 ft 466 kts 343°
2026-05-06 20:45 49.52413 6.26847 34763 ft 467 kts 344°
2026-05-06 20:45 49.55549 6.25560 34070 ft 467 kts 344°
2026-05-06 20:45 49.58693 6.24275 33347 ft 466 kts 344°
2026-05-06 20:46 49.61782 6.23012 32664 ft 464 kts 344°
2026-05-06 20:46 49.64895 6.21737 31963 ft 462 kts 344°
2026-05-06 20:46 49.68005 6.20460 31269 ft 461 kts 344°
2026-05-06 20:46 49.71085 6.19192 30744 ft 456 kts 345°
2026-05-06 20:47 49.74140 6.17933 30192 ft 452 kts 345°
2026-05-06 20:47 49.77163 6.16686 29595 ft 447 kts 344°
2026-05-06 20:47 49.80153 6.15450 29057 ft 442 kts 344°
2026-05-06 20:47 49.83104 6.14231 28525 ft 436 kts 345°
2026-05-06 20:48 49.86064 6.13330 27994 ft 431 kts 352°
2026-05-06 20:48 49.89045 6.13002 27469 ft 427 kts 359°
2026-05-06 20:48 49.91997 6.13036 26957 ft 422 kts 359°
2026-05-06 20:48 49.94926 6.13050 26438 ft 418 kts 359°
2026-05-06 20:49 49.97822 6.13055 25926 ft 414 kts 359°
2026-05-06 20:49 50.00689 6.13063 25421 ft 411 kts 359°
2026-05-06 20:49 50.03535 6.13075 24911 ft 407 kts 359°
2026-05-06 20:49 50.06361 6.13089 24408 ft 404 kts 359°
2026-05-06 20:50 50.09164 6.13105 23913 ft 402 kts 359°
2026-05-06 20:50 50.11912 6.13122 23405 ft 399 kts 358°
2026-05-06 20:50 50.14678 6.13138 22867 ft 395 kts 359°
2026-05-06 20:50 50.17413 6.13154 22378 ft 391 kts 358°
2026-05-06 20:51 50.20122 6.13169 21878 ft 387 kts 359°
2026-05-06 20:51 50.22802 6.13184 21392 ft 383 kts 359°
2026-05-06 20:51 50.25450 6.13199 20907 ft 379 kts 359°
2026-05-06 20:51 50.28071 6.13386 20425 ft 377 kts
2026-05-06 20:52 50.30598 6.14408 19950 ft 375 kts 20°
2026-05-06 20:52 50.32912 6.16271 19475 ft 374 kts 32°
2026-05-06 20:52 50.35072 6.18510 18994 ft 372 kts 32°
2026-05-06 20:52 50.37232 6.20732 18516 ft 370 kts 32°
2026-05-06 20:53 50.39377 6.22933 18019 ft 368 kts 32°
2026-05-06 20:53 50.41508 6.25122 17531 ft 364 kts 32°
2026-05-06 20:53 50.43616 6.27290 17060 ft 361 kts 32°
2026-05-06 20:53 50.45704 6.29443 16585 ft 357 kts 32°
2026-05-06 20:54 50.47775 6.31581 16118 ft 354 kts 32°
2026-05-06 20:54 50.49799 6.33671 15659 ft 351 kts 31°
2026-05-06 20:54 50.51873 6.35675 15203 ft 348 kts 29°
2026-05-06 20:54 50.53962 6.37564 14748 ft 346 kts 28°
2026-05-06 20:55 50.56045 6.39429 14302 ft 343 kts 28°
2026-05-06 20:55 50.58110 6.41293 13845 ft 341 kts 28°
2026-05-06 20:55 50.60162 6.43165 13365 ft 339 kts 28°
2026-05-06 20:55 50.62189 6.45027 12923 ft 336 kts 29°
2026-05-06 20:56 50.64195 6.46877 12476 ft 332 kts 29°
2026-05-06 20:56 50.66185 6.48716 12037 ft 329 kts 29°
2026-05-06 20:56 50.68151 6.50535 11587 ft 326 kts 29°
2026-05-06 20:56 50.70102 6.52342 11152 ft 324 kts 29°
2026-05-06 20:57 50.72036 6.54135 10724 ft 321 kts 29°
2026-05-06 20:57 50.73957 6.55919 10334 ft 318 kts 29°
2026-05-06 20:57 50.75802 6.57633 10202 ft 305 kts 29°
2026-05-06 20:57 50.77598 6.59303 10097 ft 292 kts 29°
2026-05-06 20:58 50.79329 6.60915 9863 ft 285 kts 29°
2026-05-06 20:58 50.81023 6.62474 9656 ft 277 kts 26°
2026-05-06 20:58 50.82787 6.63614 9445 ft 276 kts 15°
2026-05-06 20:58 50.84686 6.64195 9105 ft 278 kts
2026-05-06 20:59 50.86605 6.64574 8747 ft 277 kts
2026-05-06 20:59 50.88508 6.64973 8383 ft 275 kts
2026-05-06 20:59 50.90398 6.65377 8018 ft 273 kts
2026-05-06 20:59 50.92268 6.65780 7657 ft 270 kts
2026-05-06 21:00 50.94128 6.66180 7295 ft 268 kts
2026-05-06 21:00 50.95974 6.66577 6930 ft 267 kts
2026-05-06 21:00 50.97804 6.66970 6572 ft 265 kts
2026-05-06 21:00 50.99625 6.67360 6220 ft 263 kts
2026-05-06 21:01 51.01435 6.67749 5853 ft 261 kts
2026-05-06 21:01 51.03235 6.67884 5520 ft 258 kts 357°
2026-05-06 21:01 51.04992 6.67718 5232 ft 253 kts 357°
2026-05-06 21:01 51.06741 6.67567 4929 ft 251 kts 358°
2026-05-06 21:02 51.08481 6.67424 4587 ft 249 kts 358°
2026-05-06 21:02 51.10176 6.66935 4245 ft 248 kts 338°
2026-05-06 21:02 51.11570 6.65329 3890 ft 251 kts 313°
2026-05-06 21:02 51.12657 6.63172 3591 ft 248 kts 311°
2026-05-06 21:03 51.13731 6.61016 3256 ft 247 kts 311°
2026-05-06 21:03 51.14800 6.58879 3050 ft 250 kts 311°
2026-05-06 21:03 51.15936 6.56834 2966 ft 240 kts 327°
2026-05-06 21:03 51.17429 6.56052 2865 ft 220 kts
2026-05-06 21:04 51.18802 6.56837 2756 ft 204 kts 34°
2026-05-06 21:04 51.19806 6.58267 2642 ft 186 kts 46°
2026-05-06 21:04 51.20568 6.59732 2577 ft 163 kts 50°
2026-05-06 21:04 51.21223 6.61097 2411 ft 147 kts 50°
2026-05-06 21:05 51.21837 6.62376 2247 ft 143 kts 50°
2026-05-06 21:05 51.22411 6.63578 2061 ft 132 kts 50°
2026-05-06 21:05 51.22978 6.64762 1887 ft 134 kts 50°
2026-05-06 21:05 51.23541 6.65942 1707 ft 133 kts 49°
2026-05-06 21:06 51.24105 6.67122 1526 ft 134 kts 49°
2026-05-06 21:06 51.24667 6.68308 1327 ft 135 kts 50°
2026-05-06 21:06 51.25242 6.69503 1140 ft 135 kts 49°
2026-05-06 21:06 51.25810 6.70696 939 ft 136 kts 50°
2026-05-06 21:07 51.26386 6.71904 758 ft 137 kts 49°
2026-05-06 21:07 51.26968 6.73122 564 ft 139 kts 51°
2026-05-06 21:07 51.27556 6.74339 361 ft 139 kts 51°
2026-05-06 21:07 51.28131 6.75550 184 ft 139 kts 50°
2026-05-06 21:08 51.28690 6.76719 127 ft 114 kts 53°
2026-05-06 21:08 51.28975 6.77320 124 ft 36 kts 52°
2026-05-06 21:08 51.29006 6.77563 125 ft 21 kts 134°
2026-05-06 21:08 51.28911 6.77638 129 ft 14 kts 204°
2026-05-06 21:09 51.28844 6.77523 126 ft 15 kts 232°
2026-05-06 21:09 51.28775 6.77382 126 ft 17 kts 231°
2026-05-06 21:09 51.28700 6.77223 128 ft 19 kts 233°
2026-05-06 21:09 51.28619 6.77055 129 ft 20 kts 233°
2026-05-06 21:10 51.28532 6.76865 126 ft 22 kts 232°
2026-05-06 21:10 51.28440 6.76792 123 ft 15 kts 155°
2026-05-06 21:10 51.28349 6.76868 127 ft 15 kts 175°
2026-05-06 21:10 51.28243 6.76854 130 ft 16 kts 185°
2026-05-06 21:11 51.28154 6.76828 130 ft 2 kts 213°
2026-05-06 21:11 51.28152 6.76807 126 ft 3 kts 262°
2026-05-06 21:11 51.28152 6.76774 127 ft 3 kts 274°
2026-05-06 21:11 51.28154 6.76744 129 ft 1 kts 276°
2026-05-06 21:12 51.28154 6.76738 129 ft 0 kts 276°